Torna al catalogo

OPS 4682 DEB

AttivoPO
NORAD 51503·DEBRIS·🇺🇸 United States

Lanciato Apr 3, 1965 da Vandenberg Space Force Base

Loading…

Prossimi Passaggi (prossime 24 ore)

TLE

In scadenzaSource: Space-Track

Epoca: Sep 5, 2026, 01:37 UTC

1 51503U 65027GP  26248.06737080 -.00000119  00000-0 -45077-3 0  9996
2 51503  90.2601  10.7037 0040978  24.7093 335.5977 12.94803167533950

Traccia OPS 4682 DEB in tempo reale con AllMySat

Download on the App Store